Farmville, VA

4:50 PM EST on December 12, 2017 (GMT -0500)
Farmville Regional

Weather History for KFVX - March, 2012

Change the Weather History Date:

Wednesday, March 14, 2012

  Actual Average Record
Temperature  
Mean Temperature 68 °F -  
Max Temperature 86 °F 60 °F 89 °F (1990)
Min Temperature 51 °F 34 °F 4 °F (1960)
Cooling Degree Days 4    
Growing Degree Days 18 (Base 50)    
Moisture  
Dew Point 42 °F    
Average Humidity 55    
Maximum Humidity 100    
Minimum Humidity 7    
Precipitation  
Precipitation 0.00 in - - ()
Sea Level Pressure  
Sea Level Pressure 30.14 in    
Wind  
Wind Speed 2 mph (South)    
Max Wind Speed 6 mph    
Max Gust Speed -    
Visibility 9 miles    
Events Fog    
Averages and records for this station are not official NWS values.
T = Trace of Precipitation, MM = Missing Value Source: NWS Daily Summary

Daily Weather History Graph

Daily Weather History Graph

Search for Another Location

Airport or City:

Trip Planner

Search our weather history database for the weather conditions in past years. The results will help you decide how hot, cold, wet, or windy it might be!

Date:

Astronomy

Mar. 14, 2012 Rise Set
Actual Time 7:25 AM EDT 7:20 PM EDT
Civil Twilight 6:59 AM EDT 7:46 PM EDT
Nautical Twilight 6:29 AM EDT 8:16 PM EDT
Astronomical Twilight 5:58 AM EDT 8:47 PM EDT
Moon 1:45 AM EDT (3/14) 11:43 AM EDT (3/14)
Length of Visible Light 12h 46m
Length of Day
11h 55m
Waning Gibbous, 54% of the Moon is Illuminated
Mar 14
Waning Gibbous
Mar 14
Last Quarter
Mar 22
New
Mar 30
First Quarter
Apr 6
Full

Hourly Weather History & Observations

Time (EDT) Temp. Dew Point Humidity Pressure Visibility Wind Dir Wind Speed Gust Speed Precip Events Conditions
12:15 AM 66.2 °F 50.0 °F 56% 30.10 in 10.0 mi SW 4.6 mph - N/A   Clear
12:35 AM 64.4 °F 50.0 °F 59% 30.10 in 10.0 mi SW 4.6 mph - N/A   Clear
12:55 AM 64.4 °F 50.0 °F 59% 30.10 in 10.0 mi SW 4.6 mph - N/A   Clear
1:15 AM 64.4 °F 50.0 °F 59% 30.10 in 10.0 mi SW 5.8 mph - N/A   Clear
1:35 AM 62.6 °F 51.8 °F 68% 30.10 in 10.0 mi SSW 3.5 mph - N/A   Clear
1:55 AM 60.8 °F 51.8 °F 72% 30.10 in 10.0 mi Calm Calm - N/A   Clear
2:15 AM 57.2 °F 50.0 °F 77% 30.11 in 10.0 mi Calm Calm - N/A   Clear
2:35 AM 55.4 °F 50.0 °F 82% 30.11 in 10.0 mi Calm Calm - N/A   Clear
3:15 AM 57.2 °F 53.6 °F 88% 30.11 in 10.0 mi Calm Calm - N/A   Clear
3:35 AM 55.4 °F 53.6 °F 94% 30.10 in 10.0 mi Calm Calm - N/A   Clear
3:55 AM 53.6 °F 51.8 °F 94% 30.10 in 10.0 mi Calm Calm - N/A   Clear
4:15 AM 55.4 °F 53.6 °F 94% 30.10 in 10.0 mi Calm Calm - N/A   Clear
4:35 AM 55.4 °F 53.6 °F 94% 30.10 in 10.0 mi Calm Calm - N/A   Clear
4:55 AM 55.4 °F 53.6 °F 94% 30.10 in 10.0 mi SSW 3.5 mph - N/A   Clear
5:15 AM 53.6 °F 51.8 °F 94% 30.10 in 7.0 mi Calm Calm - N/A   Clear
5:35 AM 51.8 °F 51.8 °F 100% 30.11 in 10.0 mi WSW 3.5 mph - N/A   Clear
5:55 AM 51.8 °F 51.8 °F 100% 30.12 in 5.0 mi Calm Calm - N/A   Clear
6:15 AM 53.6 °F 53.6 °F 100% 30.12 in 7.0 mi Calm Calm - N/A   Clear
6:35 AM 51.8 °F 48.2 °F 88% 30.13 in 4.0 mi Calm Calm - N/A   Clear
6:55 AM 53.6 °F 51.8 °F 94% 30.14 in 0.8 mi Calm Calm - N/A   Mist
7:15 AM 51.8 °F 51.8 °F 100% 30.15 in 2.0 mi Calm Calm - N/A   Clear
7:35 AM 51.8 °F 51.8 °F 100% 30.16 in 0.5 mi Calm Calm - N/A Fog Fog
7:55 AM 53.6 °F 53.6 °F 100% 30.16 in 10.0 mi Calm Calm - N/A   Clear
8:15 AM 51.8 °F 50.0 °F 94% 30.17 in 4.0 mi Calm Calm - N/A   Clear
8:35 AM 55.4 °F 53.6 °F 94% 30.18 in 7.0 mi Calm Calm - N/A   Clear
8:55 AM 55.4 °F 53.6 °F 94% 30.18 in 10.0 mi SW 3.5 mph - N/A   Clear
9:15 AM 62.6 °F 53.6 °F 72% 30.19 in 10.0 mi Calm Calm - N/A   Clear
9:35 AM 64.4 °F 51.8 °F 64% 30.19 in 10.0 mi South 3.5 mph - N/A   Clear
9:55 AM 66.2 °F 51.8 °F 60% 30.19 in 10.0 mi Calm Calm - N/A   Clear
10:15 AM 71.6 °F 50.0 °F 46% 30.19 in 10.0 mi Calm Calm - N/A   Clear
10:35 AM 73.4 °F 48.2 °F 41% 30.19 in 10.0 mi Calm Calm - N/A   Clear
10:55 AM 75.2 °F 48.2 °F 38% 30.20 in 10.0 mi SW 3.5 mph - N/A   Clear
11:15 AM 77.0 °F 44.6 °F 32% 30.19 in 10.0 mi Calm Calm - N/A   Clear
11:35 AM 78.8 °F 39.2 °F 24% 30.19 in 10.0 mi Calm Calm - N/A   Clear
11:55 AM 80.6 °F 39.2 °F 23% 30.19 in 10.0 mi NE 3.5 mph - N/A   Clear
12:15 PM 82.4 °F 32.0 °F 16% 30.19 in 10.0 mi East 3.5 mph - N/A   Clear
12:35 PM 80.6 °F 30.2 °F 16% 30.19 in 10.0 mi Calm Calm - N/A   Clear
12:55 PM 80.6 °F 28.4 °F 15% 30.19 in 10.0 mi Calm Calm - N/A   Clear
1:15 PM 82.4 °F 24.8 °F 12% 30.18 in 10.0 mi Calm Calm - N/A   Clear
1:35 PM 82.4 °F 26.6 °F 13% 30.18 in 10.0 mi Calm Calm - N/A   Clear
1:55 PM 82.4 °F 28.4 °F 14% 30.17 in 10.0 mi Calm Calm - N/A   Clear
2:15 PM 82.4 °F 24.8 °F 12% 30.16 in 10.0 mi Calm Calm - N/A   Clear
2:35 PM 84.2 °F 21.2 °F 10% 30.15 in 10.0 mi Calm Calm - N/A   Clear
2:55 PM 84.2 °F 19.4 °F 9% 30.14 in 10.0 mi ENE 5.8 mph - N/A   Clear
3:15 PM 86.0 °F 17.6 °F 8% 30.14 in 10.0 mi East 3.5 mph - N/A   Clear
3:35 PM 86.0 °F 15.8 °F 7% 30.13 in 10.0 mi Calm Calm - N/A   Clear
3:55 PM 84.2 °F 19.4 °F 9% 30.13 in 10.0 mi Calm Calm - N/A   Clear
4:15 PM 84.2 °F 17.6 °F 8% 30.12 in 10.0 mi North 5.8 mph - N/A   Clear
4:35 PM 84.2 °F 17.6 °F 8% 30.12 in 10.0 mi Calm Calm - N/A   Clear
4:55 PM 84.2 °F 17.6 °F 8% 30.12 in 10.0 mi ESE 4.6 mph - N/A   Clear
5:15 PM 84.2 °F 14.0 °F 7% 30.12 in 10.0 mi Calm Calm - N/A   Clear
5:35 PM 84.2 °F 15.8 °F 8% 30.12 in 10.0 mi Calm Calm - N/A   Clear
5:55 PM 82.4 °F 21.2 °F 10% 30.12 in 10.0 mi South 5.8 mph - N/A   Clear
6:15 PM 82.4 °F 19.4 °F 10% 30.13 in 10.0 mi Calm Calm - N/A   Clear
6:35 PM 80.6 °F 21.2 °F 11% 30.13 in 10.0 mi Calm Calm - N/A   Clear
6:55 PM 78.8 °F 24.8 °F 14% 30.13 in 10.0 mi Calm Calm - N/A   Clear
7:15 PM 77.0 °F 24.8 °F 14% 30.14 in 10.0 mi Calm Calm - N/A   Clear
7:35 PM 77.0 °F 23.0 °F 13% 30.14 in 10.0 mi Calm Calm - N/A   Clear
7:55 PM 75.2 °F 23.0 °F 14% 30.15 in 10.0 mi Calm Calm - N/A   Clear
8:15 PM 66.2 °F 35.6 °F 32% 30.15 in 10.0 mi Calm Calm - N/A   Clear
8:35 PM 71.6 °F 26.6 °F 19% 30.15 in 10.0 mi Calm Calm - N/A   Clear
8:55 PM 69.8 °F 30.2 °F 23% 30.16 in 10.0 mi Calm Calm - N/A   Clear
9:15 PM 68.0 °F 33.8 °F 28% 30.16 in 10.0 mi Calm Calm - N/A   Clear
9:35 PM 66.2 °F 33.8 °F 30% 30.16 in 10.0 mi Calm Calm - N/A   Clear
9:55 PM 62.6 °F 37.4 °F 39% 30.17 in 10.0 mi Calm Calm - N/A   Clear
10:15 PM 60.8 °F 37.4 °F 42% 30.17 in 10.0 mi Calm Calm - N/A   Clear
10:35 PM 60.8 °F 37.4 °F 42% 30.18 in 10.0 mi Calm Calm - N/A   Clear
10:55 PM 62.6 °F 37.4 °F 39% 30.18 in 10.0 mi Calm Calm - N/A   Clear
11:15 PM 60.8 °F 37.4 °F 42% 30.18 in 10.0 mi Calm Calm - N/A   Clear
11:35 PM 60.8 °F 39.2 °F 45% 30.18 in 10.0 mi Calm Calm - N/A   Clear
11:55 PM 62.6 °F 39.2 °F 42% 30.18 in 10.0 mi Calm Calm - N/A   Clear